This is the latest recevied weather packets stored in our database for station/object N9XRG. If no packets are shown the sender has not sent any weather packets the latest 10 day(s).
| Time | Temp. | Humidity | Pressure | Rain* | Wind** | Luminosity | Snow |
|---|---|---|---|---|---|---|---|
| 1777658556 | 10.56° C | 59% | 1014.5 hPa | 0 mm | - | 274 W/m² | - |
| 1777658253 | 10.56° C | 60% | 1014.4 hPa | 0 mm | - | 367 W/m² | - |
| 1777657950 | 10.56° C | 59% | 1014.7 hPa | 0 mm | - | 324 W/m² | - |
| 1777657646 | 10.56° C | 61% | 1014.5 hPa | 0 mm | - | 277 W/m² | - |
| 1777657344 | 10.56° C | 60% | 1014.5 hPa | 0 mm | - | 278 W/m² | - |
| 1777657042 | 11.11° C | 60% | 1014.5 hPa | 0 mm | - | 948 W/m² | - |
| 1777656739 | 10.56° C | 64% | 1014.7 hPa | 0 mm | - | 620 W/m² | - |
| 1777656434 | 10° C | 62% | 1014.6 hPa | 0 mm | - | 333 W/m² | - |
| 1777656129 | 11.11° C | 58% | 1014.4 hPa | 0 mm | - | 275 W/m² | - |
| 1777655826 | 11.11° C | 59% | 1014.5 hPa | 0 mm | - | 312 W/m² | - |
| 1777655523 | 10.56° C | 63% | 1014.7 hPa | 0 mm | - | 999 W/m² | - |
| 1777655220 | 10.56° C | 62% | 1014.7 hPa | 0 mm | - | 193 W/m² | - |
| 1777654916 | 11.11° C | 59% | 1014.6 hPa | 0 mm | - | 378 W/m² | - |
| 1777654614 | 10.56° C | 61% | 1014.6 hPa | 0 mm | - | 1007 W/m² | - |
| 1777654311 | 10° C | 66% | 1014.8 hPa | 0 mm | - | 992 W/m² | - |
| 1777654009 | 10.56° C | 63% | 1014.6 hPa | 0 mm | - | 266 W/m² | - |
| 1777653706 | 10° C | 65% | 1014.5 hPa | 0 mm | - | 335 W/m² | - |
| 1777653402 | 9.44° C | 65% | 1014.6 hPa | 0 mm | - | 1088 W/m² | - |
| 1777653099 | 10.56° C | 66% | 1014.6 hPa | 0 mm | - | 271 W/m² | - |
| 1777652795 | 10.56° C | 69% | 1014.7 hPa | 0 mm | - | 781 W/m² | - |
| 1777652492 | 9.44° C | 69% | 1014.5 hPa | 0 mm | - | 1042 W/m² | - |
| 1777652189 | 8.89° C | 71% | 1014.7 hPa | 0 mm | - | 978 W/m² | - |
| 1777651886 | 8.89° C | 71% | 1014.6 hPa | 0 mm | - | 289 W/m² | - |
| 1777651583 | 8.89° C | 67% | 1014.7 hPa | 0 mm | - | 835 W/m² | - |
| 1777651280 | 8.89° C | 68% | 1014.7 hPa | 0 mm | - | 851 W/m² | - |
* Rain latest hour (hover to see other rain measurements)
** Current wind speed in m/s (hover to see current wind gust speed)